sat.trackr.live / text

‹ back to catalog

STARLINK-35434

NORAD 66246 · 2025-245N

PAYLOAD ACTIVE UNKNOWN

§ Identity

Operator
Country
US
Launch date
2025-10-29
Launch site
AFETR
Launch vehicle
Mass (kg)
RCS (m²)

Purposes: comms

External: N2YO · Heavens-Above · Gunter

§ Orbital elements

Epoch: 2026-05-24T19:36:58.786848Z

Period
94.01 min
Inclination
53.1599°
Eccentricity
0.0001122
Mean motion
15.31702594 rev/d
Perigee alt
470.0 km
Apogee alt
471.5 km
Semi-major
6,848.9 km
B*
8.5032e-4
RAAN
290.1739°
Arg perigee
81.7536°
Mean anomaly
278.3593°
Rev number
3,270

§ Raw data

STARLINK-354341 66246U 25245N   26144.81734707  .00026116  00000+0  85032-3 0  99922 66246  53.1599 290.1739 0001122  81.7536 278.3593 15.31702594 32701

JSON: /api/v1/satellites/66246 · /tle

For live sub-satellite position, see the globe view (requires WebGL).

§ Visibility from observer

Set your observer location to see the next 7 days of passes ≥ 10°. The values pass through the URL so the page stays shareable.

No JS? Fill the form by hand. The geolocation button needs JavaScript.